CAPE
0 0 0 0 0 0 0 0 0 0 0 0 0 0 0 0 0 0 0 0 0 0 0 0 0 0 0 0 0 0 0 0 0 0 0 0 0 0 0 0 0 0 0 0
0 0 0 0 0 0 0 0 0 0 0 0 0 0 0 0 0 0 0 0 0 0 0 0 0 0 0 0 0 0 0 0 0 0 0 0 0 0 0 0 0 0 0 0
0 0 0 0 0 0 0 0 0 0 0 0 0 0 0 0 0 0 0 0 0 0 0 0 0 0 0 0 0 0 0 0 0 0 0 0 0 0 0 0 0 0 0 0
0 0 0 0 0 0 0 0 0 0 0 0 0 0 0 0 0 0 0 0 0 0 0 0 0 0 0 0 0 0 0 0 0 0 0 0 0 0 0 0 0 0 0 0
0 0 0 0 0 0 0 0 0 0 0 0 0 0 0 0 0 0 0 0 0 0 0 0 0 0 0 0 0 0 0 0 0 0 0 0 0 0 0 0 0 0 0 0
0 0 0 0 0 0 0 0 0 0 0 0 0 0 0 0 0 0 0 0 0 0 0 0 0 0 0 0 0 0 0 0 0 0 0 0 0 0 0 0 0 0 0 0
0 0 0 0 0 0 0 0 0 0 0 0 0 0 0 0 0 0 0 0 0 0 0 0 0 0 0 0 0 0 0 0 0 0 0 0 0 0 0 0 0 0 0 0
0 0 0 0 0 0 0 0 0 17 2 0 0 0 0 0 0 0 0 0 0 0 0 0 0 0 0 0 0 0 0 0 0 0 0 0 0 0 0 0 0 0 0 0
0 0 0 0 0 0 0 0 0 0 0 0 0 0 0 0 0 0 0 0 0 0 0 0 0 0 0 0 0 0 0 0 0 0 0 0 0 0 0 0 0 0 0 0
0 0 0 0 0 0 0 0 0 1 0 0 0 0 0 0 0 0 0 0 0 0 0 0 0 0 0 0 0 0 0 0 0 0 0 0 0 0 0 0 0 0 0 0
1 8 0 0 0 0 0 0 0 0 3 11 0 0 0 0 0 0 0 0 0 0 0 0 0 0 0 0 0 0 0 0 0 0 0 0 0 0 0 0 0 0 0 0
8 30 1 0 0 0 0 0 0 51 2 14 17 3 0 0 0 0 0 0 0 0 0 0 0 0 0 0 0 0 0 0 0 0 0 0 0 0 0 0 0 0 0 0
4 14 0 0 0 0 0 0 0 0 1 2 9 8 0 0 0 0 0 0 0 0 0 0 0 0 0 0 0 0 0 0 0 0 0 0 0 0 0 0 0 0 0 0
0 3 2 0 0 0 0 0 0 0 5 0 0 0 0 0 0 0 0 0 0 0 0 0 0 0 0 0 0 0 0 0 0 0 0 0 0 0 0 0 0 0 0 0
0 0 0 0 0 0 0 0 0 0 0 0 0 0 0 0 0 0 0 0 0 0 0 0 0 0 0 0 0 0 0 0 0 0 0 0 0 0 0 0 0 0 0 0
1 0 0 0 0 0 0 0 0 0 0 0 0 0 0 0 0 0 0 0 0 0 0 0 0 0 0 0 0 0 0 0 0 0 0 0 0 0 0 0 0 0 0 0
0 0 0 0 0 0 0 0 0 0 0 0 0 0 0 0 0 0 0 0 0 0 0 0 0 0 0 0 0 0 0 0 0 0 0 0 0 0 0 0 0 0 0 0
0 0 3 0 0 0 0 0 0 0 0 0 0 0 0 0 0 0 0 0 0 0 0 0 0 0 0 0 0 0 0 0 0 0 0 0 0 0 0 0 0 0 0 0
0 0 5 0 0 0 0 0 0 0 0 0 0 0 0 0 0 0 0 0 0 0 0 0 0 0 0 0 0 0 0 0 0 0 0 0 0 0 0 0 0 0 0 0
0 0 0 0 1 0 0 0 0 0 0 0 0 0 0 0 0 0 0 0 0 0 0 0 0 0 0 0 0 0 0 0 0 0 0 0 0 0 0 0 0 0 0 0
0 0 0 0 0 0 0 0 0 0 0 0 0 0 0 0 0 0 0 0 0 0 0 0 0 0 0 0 0 0 0 0 0 0 0 0 0 0 0 0 0 0 0 4
0 0 0 0 0 0 0 0 0 0 0 2 0 0 0 0 0 0 0 0 0 0 0 0 0 0 0 0 0 0 0 0 0 0 0 0 0 0 0 0 0 0 1 4
0 0 0 0 0 0 0 0 0 0 0 0 0 0 0 0 0 0 0 0 0 0 0 0 0 0 0 0 0 0 0 0 0 0 0 0 0 0 0 0 0 0 0 0
0 0 0 0 0 0 0 0 0 0 0 0 0 0 0 0 0 0 0 0 0 0 0 0 0 0 0 0 0 0 0 0 0 0 0 0 0 0 0 0 0 0 0 0
0 0 0 0 0 0 0 0 0 0 0 0 0 0 0 0 0 0 0 0 0 0 0 0 0 0 0 0 0 0 0 0 0 0 0 0 0 0 0 0 0 0 0 1
0 0 0 0 0 0 0 0 0 0 0 0 0 0 0 0 0 0 0 0 0 0 0 0 0 0 0 0 0 0 0 0 0 0 0 0 0 0 1 1 0 6 19 30
CIN
0 0 0 0 0 0 0 0 0 0 0 0 0 0 0 0 0 0 0 0 0 0 0 0 0 0 0 0 0 0 0 0 0 0 0 0 0 0 0 0 0 0 0 0
0 0 0 0 0 0 0 0 0 0 0 0 0 0 0 0 0 0 0 0 0 0 0 0 0 0 0 0 0 0 0 0 0 0 0 0 0 0 0 0 0 0 0 0
0 0 0 0 0 0 0 0 0 0 0 0 0 0 0 0 0 0 0 0 0 0 0 0 0 0 0 0 0 0 0 0 0 0 0 0 0 0 0 0 0 0 0 0
0 0 0 0 0 0 0 0 0 0 0 0 0 0 0 0 0 0 0 0 0 0 0 0 0 0 0 0 0 0 0 0 0 0 0 0 0 0 0 0 0 0 0 0
0 0 0 0 0 0 0 0 0 0 0 0 0 0 0 0 0 0 0 0 0 0 0 0 0 0 0 0 0 0 0 0 0 0 0 0 0 0 0 0 0 0 0 0
0 0 0 0 0 0 0 0 0 0 0 0 0 0 0 0 0 0 0 0 0 0 0 0 0 0 0 0 0 0 0 0 0 0 0 0 0 0 0 0 0 0 0 0
0 0 0 0 0 0 0 0 0 0 0 0 0 0 0 0 0 0 0 0 0 0 0 0 0 0 0 0 0 0 0 0 0 0 0 0 0 0 0 0 0 0 0 0
0 0 0 0 0 0 0 0 0 -2 -12 0 0 0 0 0 0 0 0 0 0 0 0 0 0 0 0 0 0 0 0 0 0 0 0 0 0 0 0 0 0 0 0 0
0 0 0 0 0 0 0 0 0 0 0 -1 0 0 0 0 0 0 0 0 0 0 0 0 0 0 0 0 0 0 0 0 0 0 0 0 0 0 0 0 0 0 0 0
0 0 0 0 0 0 0 0 -5 0 0 0 0 0 0 0 0 0 0 0 0 0 0 0 0 0 0 0 0 0 0 0 0 0 0 0 0 0 0 0 0 0 0 0
-7 -28 0 0 0 0 0 0 0 0 -1 -1 0 0 0 0 0 0 0 0 0 0 0 0 0 0 0 0 0 0 0 0 0 0 0 0 0 0 0 0 0 0 0 0
-36 -10 -1 0 0 0 0 0 -1 -2 -7 -18 -6 -1 0 0 0 0 0 0 0 0 0 0 0 0 0 0 0 0 0 0 0 0 0 0 0 0 0 0 0 0 0 0
-25 -4 0 0 0 0 0 -2 0 0 0 -21 -5 -21 0 0 0 0 0 0 0 0 0 0 0 0 0 0 0 0 0 0 0 0 0 0 0 0 0 0 0 0 0 0
0 -9 -4 0 0 0 0 0 0 0 -1 0 0 0 0 0 0 0 0 0 0 0 0 0 0 0 0 0 0 0 0 0 0 0 0 0 0 0 0 0 0 0 0 0
0 0 0 0 0 0 0 0 0 0 0 -1 0 0 0 0 0 0 0 0 0 0 0 0 0 0 0 0 0 0 0 0 0 0 0 0 0 0 0 0 0 0 0 0
-11 0 0 0 0 0 0 0 0 0 0 0 0 0 0 0 0 0 0 0 0 0 0 0 0 0 0 0 0 0 0 0 0 0 0 0 0 0 0 0 0 0 0 0
0 0 0 0 0 0 0 0 0 0 0 0 0 0 0 0 0 0 0 0 0 0 0 0 0 0 0 0 0 0 0 0 0 0 0 0 0 0 0 0 0 0 0 0
0 0 -2 0 0 0 0 0 0 0 0 0 0 0 0 0 0 0 0 0 0 0 0 0 0 0 0 0 0 0 0 0 0 0 0 0 0 0 0 0 0 0 0 0
0 0 -2 -1 0 0 0 0 0 0 0 0 0 0 0 0 0 0 0 0 0 0 0 0 0 0 0 0 0 0 0 0 0 0 0 0 0 0 0 0 0 0 0 0
0 0 0 0 -1 0 0 0 0 0 0 0 0 0 0 0 0 0 0 0 0 0 0 0 0 0 0 0 0 0 0 0 0 0 0 0 0 0 0 0 0 0 0 0
0 0 0 0 -2 0 0 0 0 0 0 0 0 0 0 0 0 0 0 0 0 0 0 0 0 0 0 0 0 0 0 0 0 0 0 0 0 0 0 0 0 0 0 -1
0 0 0 0 -1 0 0 0 0 0 0 -53 0 0 0 0 0 0 0 0 0 0 0 0 0 0 0 0 0 0 0 0 0 0 0 0 0 0 0 0 0 0 0 0
0 0 0 0 0 0 0 0 0 0 0 0 0 0 0 0 0 0 0 0 0 0 0 0 0 0 0 0 0 0 0 0 0 0 0 0 0 0 0 0 0 0 0 -1
0 0 0 0 0 0 0 0 0 0 0 0 0 0 0 0 0 0 0 0 0 0 0 0 0 0 0 0 0 0 0 0 0 0 0 0 0 0 0 0 0 0 0 -1
0 0 0 0 0 0 0 0 0 0 0 0 0 0 0 0 0 0 0 0 0 0 0 0 0 0 0 0 0 0 0 0 0 0 0 0 0 0 0 0 0 0 0 0
0 0 0 0 0 0 0 0 0 0 0 0 0 0 0 0 0 0 0 0 0 0 0 0 0 0 0 0 0 0 0 0 0 0 0 0 0 0 0 0 0 0 0 0
Wind_Speed
5 3 7 10 10 11 5 8 11 11 9 12 14 15 9 9 16 19 14 10 4 15 16 18 18 16 17 18 16 14 10 8 5 3 2 1 2 2 1 2 4 5 6 6
3 7 12 7 6 8 10 11 13 8 7 8 11 16 20 20 18 16 7 14 14 15 16 16 15 14 15 15 14 14 13 11 6 4 2 2 1 0 3 3 3 4 7 7
10 6 9 5 7 10 11 12 10 8 7 6 9 8 8 9 3 18 16 16 17 15 14 13 14 14 13 15 14 15 15 13 10 9 5 4 4 4 4 3 2 1 3 5
6 3 2 4 7 6 9 8 2 5 4 3 8 7 6 16 5 14 13 14 12 10 10 11 12 15 15 14 12 14 14 14 12 12 7 7 3 2 1 2 3 3 4 3
2 7 5 6 6 1 4 3 3 5 4 5 8 5 6 7 10 9 9 11 9 8 8 10 10 11 10 9 11 10 12 14 13 12 11 7 7 5 3 3 6 4 1 2
10 2 2 5 3 0 4 4 9 7 5 2 4 4 5 4 9 6 8 9 9 8 8 9 8 7 7 7 7 8 11 13 13 12 12 9 8 7 6 6 5 3 2 2
3 8 4 1 2 3 2 3 5 2 1 6 7 4 4 3 10 13 13 11 9 8 7 8 9 9 10 12 12 11 13 13 11 10 9 10 10 9 7 7 5 6 5 2
4 5 5 5 2 2 5 1 4 5 3 4 7 6 6 7 13 14 12 10 8 8 7 7 8 7 8 9 11 11 12 10 10 9 9 8 8 5 6 8 7 6 5 5
3 2 3 2 3 2 4 2 3 2 3 2 6 5 8 14 12 10 10 9 8 7 7 7 7 7 7 7 7 8 9 9 9 8 7 7 8 8 7 8 7 7 8 9
3 5 1 3 2 1 2 4 1 2 4 5 6 5 7 7 10 10 9 8 7 6 6 5 5 7 6 6 5 7 6 6 6 7 8 7 6 6 6 5 7 7 8 9
4 2 3 1 4 6 2 2 4 1 3 4 8 7 8 6 6 11 8 7 6 5 4 4 5 6 7 6 6 5 5 6 6 6 5 4 5 6 7 9 8 7 6 7
6 3 5 8 8 8 6 9 7 7 6 4 11 15 6 7 8 8 7 6 5 5 5 5 5 4 4 4 4 4 4 3 2 3 4 5 3 5 6 7 7 8 10 8
2 2 2 9 5 3 3 4 2 4 2 7 11 7 5 7 6 4 6 7 4 3 4 4 4 3 4 4 3 3 2 0 1 1 3 5 4 4 3 4 4 5 6 6
2 3 7 7 10 11 7 9 10 3 6 11 14 20 20 13 7 6 6 6 4 4 2 0 2 3 3 3 4 4 5 5 5 4 5 6 5 5 4 3 5 6 6 7
1 4 2 9 10 10 10 13 18 16 16 13 23 22 23 19 5 5 6 6 3 5 7 6 3 2 4 4 4 4 3 4 3 5 7 8 7 7 7 6 6 6 6 6
3 4 3 7 6 10 16 22 18 19 21 23 22 24 13 7 4 1 1 5 2 4 6 4 5 5 6 6 5 6 5 5 3 5 6 6 7 8 8 6 6 6 8 7
3 4 2 8 2 4 8 19 20 18 20 20 19 13 2 2 0 3 5 4 4 4 4 5 6 6 6 4 3 5 6 4 5 7 8 10 9 10 12 11 10 9 9 8
5 5 3 5 5 5 10 2 5 9 12 6 5 3 5 3 4 4 4 6 5 2 3 5 4 5 4 2 3 4 6 6 6 7 7 8 8 10 11 11 14 14 11 12
14 7 4 4 7 10 16 6 3 4 8 3 4 5 6 4 4 6 3 4 2 4 4 4 3 3 5 6 5 4 4 5 6 9 9 8 7 10 13 15 17 16 14 15
1 7 7 2 5 9 1 6 5 3 9 7 6 5 2 2 2 6 4 4 6 5 2 5 6 5 6 5 5 4 6 7 8 9 11 11 11 12 14 16 17 15 14 16
3 1 10 12 8 7 1 4 5 4 13 3 7 6 5 4 7 10 7 5 5 3 5 6 6 5 5 5 5 7 7 8 9 10 12 13 13 14 15 17 15 16 18 19
7 6 6 2 2 8 1 4 7 5 3 5 6 8 6 9 8 7 8 5 5 5 6 5 3 2 3 4 5 9 9 10 11 11 12 13 13 11 12 15 15 16 16 18
3 9 6 8 7 4 6 6 7 4 5 7 7 10 10 8 6 7 2 4 4 4 2 2 3 6 4 4 4 9 12 13 13 12 13 13 13 12 13 14 15 13 13 13
5 8 6 6 9 14 19 15 13 13 11 9 8 8 6 7 6 3 2 1 2 2 2 2 4 6 7 3 6 5 11 12 11 13 14 13 13 14 13 11 11 12 12 12
11 4 10 11 11 16 15 13 14 14 16 14 10 7 8 7 5 5 4 3 1 3 3 4 4 7 9 8 9 7 10 9 12 13 13 13 11 13 13 13 12 12 13 15
16 22 12 11 16 13 14 12 9 8 8 7 6 5 3 4 3 3 3 3 3 3 3 4 5 7 9 9 10 10 6 7 11 13 12 12 12 12 12 13 13 22 29 32
Wind_Direction
195 211 204 229 239 263 315 309 298 298 307 298 285 289 308 284 271 288 291 292 26 72 60 49 41 25 20 18 14 10 17 7 79 83 104 104 172 162 142 155 180 174 166 180
129 227 238 266 326 311 297 286 284 278 283 325 320 299 290 276 268 264 294 61 66 61 49 45 42 38 28 21 18 13 12 19 31 44 57 83 110 221 160 161 169 185 165 170
215 262 330 311 296 275 272 270 291 313 342 302 300 281 269 281 19 74 64 71 62 56 47 40 35 34 34 27 27 24 17 18 15 12 29 32 42 30 33 20 49 272 154 171
238 224 196 248 260 252 277 260 320 301 336 234 47 281 329 281 79 80 75 67 56 56 59 51 41 37 30 22 19 27 26 21 18 16 15 33 55 73 345 232 182 164 167 192
199 168 185 213 229 273 260 10 280 253 244 308 233 250 246 234 107 104 91 86 75 66 62 58 51 49 35 31 23 25 29 29 15 21 26 24 17 359 347 27 59 28 24 257
261 107 279 230 230 338 13 296 268 257 215 287 238 210 302 93 156 123 110 96 91 74 64 60 58 51 45 33 42 36 37 26 25 23 17 22 18 4 2 4 2 351 200 207
264 225 204 202 250 124 85 330 309 290 101 211 52 3 255 348 171 153 132 109 93 80 62 50 43 38 32 32 29 34 30 27 26 12 26 21 10 2 11 16 6 1 339 311
237 292 123 161 211 10 174 338 185 263 319 306 2 237 246 82 80 91 97 100 80 68 65 60 47 40 40 38 30 27 28 28 19 9 15 18 8 16 22 13 11 359 351 336
322 204 164 148 66 61 141 191 76 41 235 211 231 277 290 116 104 110 107 93 90 77 65 66 67 62 53 44 43 35 33 15 5 1 16 24 17 11 16 24 26 16 356 344
30 307 112 82 113 212 187 111 44 172 259 241 262 280 264 93 138 124 107 101 98 94 87 93 108 104 86 73 60 44 56 33 19 10 359 7 12 5 1 27 30 9 352 349
109 202 240 55 180 191 155 195 210 250 200 249 274 257 96 85 108 128 128 123 125 131 114 81 57 50 66 51 55 71 57 44 9 357 336 354 1 353 356 22 18 5 343 336
202 187 237 241 288 310 274 265 266 244 253 243 256 257 29 109 118 123 139 144 127 79 68 72 73 67 57 56 35 29 27 76 8 334 326 330 15 360 16 19 357 343 337 335
41 245 325 324 291 67 86 42 1 305 252 243 266 267 54 98 124 157 180 155 146 148 122 88 78 57 51 29 42 16 348 271 159 12 323 319 343 356 6 10 330 303 294 298
55 224 178 226 261 326 302 291 273 252 275 288 272 287 290 288 313 282 171 157 166 183 153 36 44 22 6 4 357 352 344 344 341 357 335 329 323 324 323 307 293 293 296 302
128 251 265 278 291 305 295 277 273 273 265 255 272 280 278 291 310 74 100 91 131 213 210 204 186 279 290 296 299 298 294 312 326 332 322 309 317 319 313 307 294 291 294 286
155 255 22 286 276 270 268 266 270 269 268 266 267 269 295 33 72 21 99 128 58 20 353 297 197 220 239 241 261 281 285 296 319 310 289 293 306 304 303 289 277 277 285 280
205 160 130 255 37 348 299 246 248 255 260 265 273 284 351 305 266 71 44 3 313 300 298 320 293 244 230 221 259 289 285 308 308 291 290 300 306 303 305 303 298 289 289 290
216 153 166 256 49 245 249 116 327 273 273 283 280 169 175 155 23 350 284 251 255 269 318 291 287 299 270 78 18 5 348 326 290 281 277 279 287 288 288 289 289 289 290 289
224 214 243 196 206 280 307 299 342 96 280 207 208 199 189 39 321 281 288 43 337 294 285 268 280 18 44 44 16 348 314 294 292 296 295 297 298 299 298 292 289 286 284 285
191 212 193 178 197 223 276 106 118 117 269 223 161 165 108 347 15 269 310 306 286 280 315 27 31 44 44 18 13 348 314 313 308 314 321 320 316 309 305 303 300 297 292 285
123 303 216 234 248 272 268 124 115 133 268 194 164 182 223 228 213 244 260 260 251 83 65 44 31 26 22 16 356 323 320 312 322 326 316 312 314 311 304 300 299 298 295 291
156 166 217 156 220 280 195 112 171 227 140 173 208 236 269 283 266 259 257 262 89 66 41 34 20 28 9 1 353 321 317 322 319 313 312 308 304 300 297 295 294 291 290 286
245 203 195 175 203 217 195 219 224 251 214 231 232 263 269 268 256 265 272 69 58 71 55 67 23 340 354 360 352 322 320 321 318 314 306 301 298 296 293 293 293 292 287 283
247 229 224 245 247 257 264 264 259 271 266 256 248 250 241 245 250 166 133 58 18 24 28 41 16 328 318 331 327 303 313 315 312 306 304 303 300 298 292 286 287 288 288 286
220 142 228 250 251 258 265 257 262 261 265 269 270 229 217 207 191 166 167 160 158 42 26 17 332 312 311 319 315 310 310 309 305 304 303 304 299 297 297 288 286 281 276 276
230 235 238 247 248 249 261 267 250 248 236 248 245 215 200 173 171 117 134 107 79 45 359 320 317 311 305 311 310 309 299 296 297 301 306 301 300 298 296 294 291 285 289 292